Location: Strawberry
(45.6646°N, 111.9596°W)
Time: 23:58:17
(UTC+00:00)

Courier 1B Rocket - Pass Details

Date: 11 October 2022
Orbit: 920 x 1202 km, 28.3° (Epoch: 03 December)

Event Time Altitude Azimuth Distance (km) Brightness Sun altitude
Rises 22:03:39 0° 211° (SSW) 4,062 9.5 25.0°
Reaches altitude 10° 22:08:35 10° 185° (S) 3,060 8.4 24.3°
Maximum altitude 22:11:29 13° 162° (SSE) 2,841 7.8 23.9°
Drops below altitude 10° 22:14:20 10° 139° (SE) 2,995 7.6 23.6°
Sets 22:19:01 0° 112° (ESE) 3,888 7.9 22.9°
